Terminal Aerodrome Forecast
Issued by NWS Spokane, WA

Home | Current Version | Previous Version | Text Only | Print | Product List | Glossary On
Versions: 1 2 3 4 5 6 7 8 9 10 11 12 13 14
000
FTUS46 KOTX 210520
TAFLWS
TAF
KLWS 210520Z 2106/2206 14004KT P6SM SCT100 BKN150
     FM211600 06005KT P6SM BKN120 OVC150
     FM220000 12006KT P6SM VCSH BKN080 OVC120=

USA.gov is the U.S. government's official web portal to all federal, state and local government web resources and services.